Theta_e
303 302 302 302 302 302 303 303 303 303 305 307 308 309 310 311 312 313 312 313 313 313 312 311 310 310 310 310 309 310 310 310 310 309 309 309 309 309 309 308 308 308 307 307 307 307 305 304 303 302 301 300 299 299 299 298 297 296 296 297 298 301 302 299 292 284 283 284 284 283 283 282 282 281 280 280 280 280 280 279 279 279 279 278 278
302 302 302 302 302 302 302 302 303 303 303 304 306 307 308 309 310 310 310 310 311 311 311 311 310 309 309 309 308 308 309 309 309 309 309 309 308 308 308 307 307 307 306 305 305 305 304 303 302 301 300 299 298 298 298 297 296 296 296 298 301 301 301 298 291 284 282 282 282 282 282 282 282 281 280 280 280 280 280 279 279 278 278 278 278
302 302 302 302 302 302 302 302 302 303 303 304 304 305 306 307 308 308 308 308 309 309 309 309 309 309 309 309 308 307 307 308 308 308 308 308 308 307 308 308 307 306 305 305 304 304 304 303 302 301 300 299 298 298 298 296 295 296 298 299 301 300 298 297 293 287 282 281 281 282 281 281 281 281 280 280 280 280 280 280 279 278 277 277 278
301 301 301 301 302 302 302 302 302 303 303 303 304 303 304 305 306 307 307 307 307 308 308 307 307 307 308 308 308 306 306 306 306 307 307 307 307 306 307 307 307 306 305 305 304 304 303 302 301 301 300 299 299 298 297 296 296 298 299 300 300 299 296 294 295 292 285 281 281 281 281 281 281 281 280 279 280 280 279 279 278 277 277 277 277
300 301 301 301 301 301 302 302 302 302 302 302 303 303 303 303 304 305 305 306 306 306 306 306 305 306 306 307 307 307 307 306 305 305 306 306 306 306 307 307 307 306 306 305 305 304 304 302 301 300 300 299 298 297 296 296 297 298 300 299 299 297 294 292 293 294 289 284 280 280 281 280 280 280 280 279 279 279 278 278 278 277 277 277 277
300 301 301 301 301 301 301 301 302 302 302 302 302 302 303 303 303 303 304 305 305 305 305 305 305 305 305 306 306 306 307 306 305 304 304 304 304 305 306 306 306 306 305 305 305 304 303 302 301 301 300 299 298 297 297 297 298 299 299 299 298 295 293 292 291 291 290 286 282 280 280 280 280 280 279 280 279 279 278 277 277 277 276 277 276
299 300 300 300 301 301 301 301 301 301 302 302 302 302 303 303 303 302 303 303 304 304 304 304 304 304 304 304 304 304 304 305 305 304 303 303 303 303 304 304 304 304 304 303 304 304 303 301 301 301 300 300 299 298 298 297 298 298 298 298 296 293 292 291 290 289 287 284 282 280 280 279 280 279 279 279 279 279 278 277 276 276 276 276 276
299 299 298 298 299 299 300 300 300 301 301 301 302 302 302 302 302 302 302 302 303 303 303 303 303 303 303 302 302 301 302 302 304 304 303 302 302 302 303 303 303 302 302 302 302 302 301 300 301 301 301 301 300 300 299 298 298 297 297 296 295 292 291 289 288 287 286 283 281 280 279 279 279 279 278 278 278 278 278 278 277 276 276 276 276
298 298 297 297 297 298 298 299 299 300 300 300 301 301 301 302 302 302 302 301 302 302 302 303 302 302 302 301 300 300 300 300 301 302 303 302 302 302 301 302 302 301 300 300 300 300 300 299 300 301 301 301 301 301 300 299 299 297 295 295 294 292 290 288 287 286 284 283 281 279 278 278 278 278 277 277 278 278 277 277 277 277 276 276 275
297 297 297 297 297 297 297 298 298 299 299 300 300 300 301 301 301 301 301 301 301 301 301 302 301 301 301 300 299 299 299 300 301 301 302 302 301 301 300 300 301 301 300 299 299 299 298 298 299 299 300 300 300 300 299 299 300 300 298 297 296 293 289 287 286 285 284 282 281 279 279 278 278 278 279 278 278 278 277 277 277 276 275 275 274
297 296 296 296 296 296 297 297 298 298 299 299 299 300 300 300 300 301 301 301 301 300 300 300 300 300 300 299 298 299 299 299 300 300 300 300 300 299 298 298 298 299 299 298 298 298 297 297 297 297 298 299 299 298 298 298 299 300 299 300 299 296 292 288 285 284 284 283 282 281 279 278 278 279 280 278 277 278 278 277 277 276 275 274 274
296 295 295 295 295 295 296 296 297 298 298 299 299 299 299 299 300 300 300 300 300 299 299 299 299 299 298 298 297 298 299 299 298 299 298 298 298 298 298 298 297 297 297 297 297 297 296 295 296 296 297 298 298 298 298 298 299 299 299 299 298 297 296 294 290 287 285 284 283 282 281 281 280 279 280 280 279 278 278 277 277 276 276 275 274
295 294 294 294 294 295 295 296 297 297 298 298 298 299 299 299 299 299 299 300 299 299 298 298 298 298 297 296 296 296 297 298 297 297 297 297 297 297 297 297 296 295 295 295 295 295 294 293 294 294 295 297 298 298 297 297 297 297 297 297 295 294 294 294 293 292 290 288 285 284 283 283 282 282 283 283 282 279 277 276 276 276 276 276 276
294 294 294 293 294 294 295 296 297 297 298 298 298 298 298 298 299 299 299 299 298 298 297 297 296 297 297 296 295 295 295 296 297 296 296 296 296 296 295 295 295 295 294 294 294 294 293 293 292 293 294 296 297 297 296 296 295 293 293 293 292 291 290 289 289 290 290 289 288 286 286 285 286 286 286 285 284 282 280 279 278 277 277 276 276
294 293 293 293 293 294 295 296 296 297 297 297 297 297 298 298 298 298 298 298 298 297 297 296 295 295 296 296 295 294 294 295 295 296 296 296 295 295 294 294 294 294 293 293 292 292 292 292 292 292 292 294 297 297 296 296 294 291 290 289 289 288 288 287 288 288 288 288 288 288 287 287 287 287 286 285 285 285 284 283 281 279 277 276 275
293 293 292 292 293 294 295 295 296 296 296 296 296 296 297 297 297 297 297 296 296 296 296 296 295 295 295 295 294 294 294 294 294 295 295 295 294 294 293 293 293 293 293 292 292 291 291 291 291 291 291 292 294 296 296 295 292 289 288 287 287 287 286 286 287 288 288 287 287 287 287 287 287 286 286 286 284 283 282 281 279 278 276 274 274
293 292 292 292 292 293 294 295 295 296 296 295 296 296 296 296 296 296 296 295 295 295 295 295 295 294 294 294 293 293 293 293 293 294 294 294 293 293 293 292 292 291 291 291 291 291 291 291 291 291 290 290 292 294 295 294 291 288 286 286 285 285 285 285 286 286 286 286 286 286 286 286 286 285 285 285 284 283 282 279 277 277 276 274 273
292 292 292 292 292 292 293 294 294 295 295 295 295 295 296 296 296 295 295 295 294 294 294 294 294 293 293 293 293 292 292 292 293 293 293 293 293 293 292 292 291 290 290 290 290 290 290 290 291 291 291 291 291 293 293 292 289 287 286 285 284 284 284 284 284 285 285 285 285 285 285 285 284 284 284 284 283 283 283 281 280 278 277 275 274
292 292 292 292 291 291 292 293 293 294 294 294 295 295 295 295 295 295 294 294 293 293 294 293 293 292 292 292 292 292 292 291 292 292 292 292 292 292 292 291 290 289 289 288 288 289 289 289 290 291 291 291 291 291 291 290 289 287 286 284 283 283 283 284 284 283 283 283 284 284 283 283 283 283 283 283 283 283 283 283 282 280 279 277 275
292 292 292 291 291 291 291 291 292 293 293 294 294 294 294 294 293 293 293 293 293 293 292 292 292 292 292 291 291 291 291 291 291 292 292 291 292 292 291 290 290 289 288 288 287 287 287 288 289 290 291 291 290 289 289 289 288 287 285 284 284 283 283 283 283 283 283 283 283 283 282 282 282 282 282 282 282 282 282 281 282 282 282 280 277
292 292 292 291 291 291 290 291 292 292 293 293 293 293 293 293 293 293 293 293 292 291 291 291 291 291 291 291 291 291 291 291 291 291 291 291 291 291 291 290 290 289 288 287 286 286 286 287 287 288 289 289 289 289 288 287 287 286 285 284 284 283 283 282 283 283 283 282 282 282 282 281 281 281 281 281 281 281 281 281 280 281 281 281 279
292 292 291 291 291 291 290 290 291 292 292 292 293 293 293 293 293 293 292 291 291 290 290 290 290 291 290 290 290 290 290 290 291 291 291 291 291 291 291 290 289 289 288 286 286 286 286 285 285 286 287 287 287 287 287 286 285 285 284 284 283 283 283 282 282 282 282 282 281 281 281 281 280 280 280 280 280 280 280 280 280 279 279 280 280
292 292 291 291 291 291 290 290 291 291 292 292 292 292 292 292 291 291 291 290 290 289 289 289 290 290 289 289 289 289 289 289 290 291 291 291 291 290 290 290 289 288 288 287 286 286 285 285 285 285 285 285 285 285 285 284 284 284 283 282 282 282 282 282 281 281 281 281 281 280 280 280 280 279 279 279 280 280 279 279 279 278 278 278 278
291 291 291 291 291 291 290 290 291 291 291 291 291 291 291 290 290 290 290 289 289 289 288 289 289 289 289 288 288 288 288 289 289 290 291 290 290 290 289 289 289 288 288 287 287 286 285 285 285 285 285 284 284 284 284 283 283 283 282 282 282 282 282 281 281 280 280 280 280 280 280 280 279 279 279 279 279 279 279 278 278 277 277 277 277
290 291 291 290 290 290 290 290 290 290 291 291 291 290 290 290 289 289 289 289 288 288 288 288 288 288 288 288 288 287 288 288 288 289 290 290 290 289 289 289 289 287 287 287 286 286 285 285 286 286 285 284 284 284 283 282 282 282 282 282 282 281 281 281 280 280 279 279 279 279 279 279 279 279 279 279 279 279 278 277 277 277 277 276 276
290 290 290 290 290 290 290 290 290 290 290 290 290 290 289 289 289 288 288 288 288 288 288 288 288 288 288 288 288 287 287 287 287 288 288 289 289 289 289 289 288 287 287 286 286 285 285 286 286 286 286 285 284 284 283 283 282 282 282 281 281 281 281 281 280 280 279 279 279 279 279 279 279 279 279 279 279 278 277 277 276 276 276 276 275
290 289 289 289 290 289 289 289 289 289 290 290 290 290 289 289 289 288 288 288 288 288 288 287 287 288 288 287 287 287 287 287 287 287 288 288 289 289 289 288 288 287 286 286 285 285 285 285 285 285 285 284 284 284 283 283 282 281 281 281 281 281 281 281 281 280 280 279 279 279 279 279 279 278 278 278 278 277 277 277 277 276 275 275 274
290 289 289 289 289 289 289 289 289 289 289 289 289 289 289 289 289 288 288 288 288 287 287 287 287 288 288 287 287 287 286 286 286 287 287 288 288 289 289 288 287 286 285 285 285 285 284 284 284 284 284 283 283 284 284 283 283 281 281 281 281 280 280 280 280 280 280 279 279 278 278 278 277 277 277 277 277 277 277 277 277 276 275 274 273
289 289 289 289 289 289 289 289 289 289 289 289 289 289 289 289 289 288 288 288 288 288 288 287 287 288 288 287 287 287 286 286 286 286 287 287 288 288 288 288 287 286 285 285 285 284 283 283 282 282 283 283 283 283 284 284 283 282 281 281 281 280 279 279 279 279 279 278 278 277 277 276 276 276 276 276 276 276 276 276 275 275 274 273 272
289 288 288 288 288 288 288 288 289 289 289 289 289 289 289 289 289 289 288 288 288 288 288 288 288 288 288 288 287 287 287 287 287 287 287 287 287 288 288 288 287 286 285 284 284 283 282 282 282 282 282 282 282 283 283 283 283 282 281 281 280 280 279 279 279 278 278 278 278 277 277 276 275 275 275 275 274 275 275 275 275 274 273 272 271
288 288 288 287 288 288 288 288 288 288 288 288 288 288 288 288 288 288 289 288 288 288 288 288 288 288 288 288 287 288 288 288 287 287 287 287 287 287 288 287 287 286 285 284 284 283 282 282 282 282 282 282 282 282 283 283 283 283 282 281 280 279 279 278 278 278 278 278 277 277 276 276 275 275 274 274 274 274 274 274 273 273 272 272 271
288 288 288 287 288 288 288 288 288 288 288 288 288 288 288 288 288 288 288 288 288 288 288 288 288 288 288 288 288 287 287 287 287 287 287 286 287 287 287 287 287 286 285 285 284 283 282 282 282 282 282 282 282 282 282 282 283 283 282 281 280 280 279 279 278 278 278 277 277 277 276 276 275 275 275 274 274 274 273 272 272 272 272 271 271
289 289 288 288 287 287 288 288 288 288 288 288 288 288 288 288 288 287 287 288 288 288 288 288 288 288 288 288 288 287 287 287 287 287 286 286 286 287 287 287 287 286 285 285 284 283 283 282 282 282 282 282 282 283 282 282 282 283 282 282 281 280 280 279 278 278 278 277 277 277 276 276 275 275 274 274 273 273 272 272 272 272 271 270 270
290 289 289 288 287 287 287 288 288 288 288 288 288 288 288 288 288 287 287 287 287 287 287 287 287 287 287 287 287 287 287 287 287 286 286 286 286 286 287 287 287 286 285 285 284 283 283 283 282 282 282 282 282 282 282 282 282 282 282 282 281 281 280 280 279 278 278 278 278 277 277 276 275 275 274 273 273 272 273 273 273 272 271 270 270
289 289 289 289 288 287 287 287 288 288 288 288 288 287 287 287 287 287 287 287 287 287 287 287 287 287 287 287 287 287 287 287 287 286 286 286 286 286 286 287 287 286 285 285 284 284 283 283 283 282 282 282 282 282 282 282 282 282 282 282 282 281 281 280 280 279 279 278 278 277 277 276 275 275 274 273 273 273 273 273 273 272 271 270 269
289 289 289 289 288 288 288 287 287 288 288 288 288 288 287 287 287 287 287 287 287 287 287 287 287 287 287 287 287 287 287 287 287 286 286 286 286 286 286 287 287 287 286 285 285 284 284 283 283 283 282 282 282 282 282 282 282 282 282 282 282 282 282 281 281 280 279 279 278 278 277 276 275 275 274 273 273 273 274 273 272 271 270 269 269
289 289 288 289 288 288 288 288 287 288 288 288 288 287 287 287 287 287 287 287 287 287 287 287 287 287 286 286 287 287 287 287 287 286 286 286 286 286 286 287 287 287 287 286 285 285 284 284 283 283 283 282 282 282 282 282 282 282 282 282 282 282 282 282 282 281 280 279 279 278 278 277 276 275 274 274 273 273 273 272 271 270 269 269 269
289 289 289 289 289 288 288 288 288 288 288 288 288 287 287 287 287 287 287 287 287 287 287 287 287 287 286 286 286 286 287 287 287 286 286 286 285 285 286 286 286 287 287 286 286 285 285 284 284 283 283 283 283 282 282 282 282 282 282 282 282 282 282 282 282 282 281 280 279 279 278 277 276 275 275 274 273 272 272 271 270 269 268 268 268
289 289 289 289 289 288 288 288 288 288 287 287 287 287 287 287 287 286 286 287 287 287 287 287 287 287 287 286 286 286 286 287 287 287 286 286 286 285 285 286 286 286 287 287 286 286 285 285 285 284 284 283 283 283 283 283 282 282 282 282 281 282 282 282 282 282 282 281 280 280 279 278 277 276 275 274 274 272 271 271 270 270 268 268 268
289 289 289 289 289 289 288 288 288 288 288 287 287 287 287 287 287 287 286 286 286 286 286 286 286 287 287 287 286 286 286 286 286 286 286 286 286 286 285 285 286 286 286 287 287 286 286 286 286 285 285 284 284 284 283 283 283 283 282 282 282 282 282 282 282 282 282 282 281 281 280 279 278 276 275 275 274 273 272 271 271 270 270 269 268
290 289 289 289 289 289 288 288 288 288 288 288 287 287 287 287 287 287 286 286 286 286 286 286 286 286 286 286 286 286 286 286 286 287 287 286 286 286 286 285 285 286 286 286 287 287 287 287 286 286 286 285 285 284 284 284 284 283 283 282 282 282 282 282 282 282 282 282 282 282 281 280 279 277 276 275 275 274 273 272 271 270 270 269 268
289 289 289 289 289 289 288 288 288 288 288 288 288 287 287 287 287 287 287 286 286 286 286 286 286 286 286 286 286 286 286 286 286 287 287 287 286 286 286 286 286 285 285 286 286 286 287 287 287 287 287 286 286 285 285 285 284 284 283 283 283 283 282 282 282 282 282 282 282 282 282 281 280 278 277 276 275 274 273 272 271 270 270 269 268
290 289 289 289 288 288 288 288 288 289 288 288 288 288 288 288 287 287 287 286 286 286 286 286 286 286 285 286 286 286 286 286 286 287 287 287 287 287 286 286 286 286 286 286 286 286 286 287 287 287 287 287 287 287 286 286 285 285 284 284 283 283 283 283 282 282 282 282 282 282 282 281 280 279 277 276 275 274 274 272 271 270 270 269 268
289 289 289 289 288 288 288 288 288 288 289 289 288 288 288 288 288 287 287 287 287 286 286 286 286 286 285 285 285 285 285 286 286 286 286 286 287 287 287 286 286 286 286 286 286 286 286 286 286 287 287 287 287 287 287 287 286 286 285 285 284 284 283 283 283 283 283 282 282 282 282 281 281 279 277 276 275 274 273 272 271 270 270 269 268
289 289 288 288 288 288 288 288 288 288 289 289 288 288 288 288 288 288 288 287 287 287 287 287 286 286 286 285 285 285 285 285 285 286 286 286 286 286 287 287 287 286 286 286 286 286 286 286 286 286 286 287 287 287 287 287 287 287 286 286 285 285 284 284 284 284 283 283 282 282 282 281 280 279 278 276 275 274 274 273 271 270 269 269 268
289 288 288 288 288 288 288 288 288 288 288 288 288 288 288 288 288 288 288 288 288 288 287 287 287 287 286 286 285 285 285 285 285 285 285 286 286 286 286 287 287 287 286 286 286 286 286 286 286 286 286 286 286 286 287 287 287 287 287 286 286 286 285 285 285 284 284 283 283 282 282 281 280 280 278 277 275 275 274 273 272 271 270 269 268
288 288 288 287 288 288 288 288 288 288 288 288 288 288 288 288 288 288 288 288 288 288 288 288 288 287 287 286 286 285 285 285 285 285 285 285 285 286 286 286 286 286 286 286 286 286 286 286 286 286 286 286 286 286 286 286 286 286 286 286 286 286 286 286 285 285 284 284 283 282 282 281 280 279 279 277 276 275 274 273 272 271 271 270 269
287 287 287 287 287 287 287 287 287 287 287 288 288 288 288 288 288 288 288 288 288 288 288 288 288 288 288 287 287 286 286 285 285 285 285 285 285 286 286 286 286 286 286 286 286 286 286 286 286 286 286 286 286 285 285 285 285 286 286 286 286 286 286 286 286 285 284 284 283 282 282 281 280 279 278 277 276 275 274 273 272 272 271 270 269
286 286 286 287 287 287 287 287 287 287 287 287 287 287 288 288 288 288 288 288 288 288 288 288 288 288 288 288 287 287 287 286 286 285 285 285 285 286 286 286 286 286 286 286 286 286 286 286 286 286 286 286 285 285 285 285 285 285 285 285 286 286 286 286 286 285 284 284 283 282 282 281 280 279 278 277 276 275 274 274 273 272 271 270 269
284 285 285 286 286 286 287 287 287 287 287 287 287 287 287 287 288 288 288 288 288 288 288 288 288 288 288 288 288 288 287 287 287 286 286 286 286 286 286 286 286 286 286 286 286 286 286 286 286 286 286 286 286 285 285 285 285 285 285 285 285 285 285 285 285 285 284 284 283 282 282 281 280 279 278 277 276 276 275 274 273 272 271 270 270
283 284 284 285 285 286 286 286 287 287 287 287 287 287 287 287 287 287 288 288 288 288 288 288 288 288 288 288 288 288 288 287 287 287 287 287 286 286 286 286 286 286 286 286 286 286 286 286 286 286 286 286 286 286 285 285 285 285 285 285 285 285 285 285 284 284 284 284 283 282 282 281 280 279 278 277 276 276 275 274 274 273 272 271 270
Wind_Speed
23 23 22 22 23 23 23 24 25 26 27 28 28 29 30 32 33 34 35 37 39 39 39 39 39 40 41 41 41 41 42 43 44 45 45 44 45 45 45 47 47 45 44 44 45 44 43 42 40 40 39 39 39 38 38 37 36 36 35 32 26 20 20 19 15 14 14 19 25 27 25 26 27 26 26 24 23 22 19 19 19 18 17 16 16
25 25 24 24 24 24 24 25 26 26 27 28 29 30 30 31 32 33 34 36 37 39 40 40 40 40 41 43 42 41 41 43 43 45 46 45 44 43 44 44 43 42 43 43 44 43 42 41 40 39 38 38 38 38 38 37 36 37 36 30 25 24 23 21 20 18 17 19 24 27 26 27 27 27 27 26 24 23 21 21 19 17 16 16 15
24 25 26 26 26 25 25 25 26 27 28 29 30 31 31 31 31 32 34 35 36 38 38 39 40 41 42 43 43 41 40 41 43 44 46 46 45 44 45 46 44 43 43 43 43 43 42 42 42 41 39 38 38 38 37 37 37 37 34 29 26 26 25 24 21 21 24 25 26 29 29 29 28 28 28 26 23 23 22 21 19 18 17 16 14
21 22 24 26 27 27 27 27 27 28 28 29 30 31 31 31 31 32 33 34 36 37 38 37 38 39 41 43 43 41 40 39 39 42 45 45 44 44 45 46 46 45 45 44 44 44 44 43 43 44 43 41 39 39 38 39 39 36 31 28 27 27 27 25 22 22 28 28 27 30 32 30 28 28 28 26 23 22 21 20 19 18 18 16 15
19 20 21 23 25 27 28 29 29 29 29 29 30 30 30 30 31 32 33 33 34 36 37 37 37 37 40 42 43 44 44 41 38 40 43 44 44 45 46 46 46 47 47 46 46 47 46 46 45 45 45 43 42 41 41 42 40 36 32 30 30 29 28 26 22 21 26 31 31 29 29 29 28 28 29 28 25 22 20 19 19 18 18 17 16
17 17 19 20 22 24 26 28 30 31 31 31 31 31 31 31 31 32 33 33 33 34 35 36 36 37 39 41 42 44 46 45 42 40 40 41 41 43 44 45 45 46 47 47 48 48 48 47 47 47 47 46 45 44 43 43 41 38 36 33 31 31 29 27 23 22 26 32 33 31 30 30 28 28 29 29 27 26 23 20 18 19 20 19 17
14 14 15 17 19 21 23 25 28 29 30 31 31 31 32 32 32 33 33 33 33 34 34 35 36 37 38 38 38 39 42 44 45 43 40 39 39 40 41 42 42 43 44 46 47 48 48 48 48 49 50 49 47 47 45 44 42 41 39 36 34 32 30 27 25 25 29 32 33 33 33 30 28 29 30 28 26 25 26 24 22 21 21 21 20
13 14 14 16 18 20 21 22 23 25 27 28 29 30 31 32 32 32 32 32 33 34 34 35 35 36 36 35 34 34 35 38 42 43 42 40 39 39 40 42 41 41 41 43 45 46 46 47 48 51 51 50 49 49 48 47 44 40 38 37 36 34 31 29 27 28 32 33 32 32 32 29 28 28 28 29 28 27 29 28 27 26 24 22 20
14 15 15 17 19 19 19 20 21 23 24 25 27 28 29 30 30 30 30 31 32 33 33 34 35 35 35 35 34 33 33 35 38 41 43 42 41 40 40 41 42 42 41 41 42 44 45 45 47 50 51 50 49 49 49 48 47 43 40 39 37 35 33 31 30 31 34 34 32 32 31 30 31 32 33 35 34 31 30 29 27 26 25 22 21
15 15 16 17 17 17 18 19 20 22 23 24 25 26 27 28 28 28 29 29 30 31 32 32 33 34 35 35 34 33 34 36 38 40 42 42 42 40 38 39 42 43 43 42 42 42 43 44 46 48 49 48 47 47 47 47 47 45 43 41 39 38 36 34 32 34 36 36 36 35 34 33 35 39 40 37 33 29 30 30 27 25 24 21 19
15 16 17 17 17 16 17 17 19 21 23 24 25 25 26 26 27 27 28 28 29 29 30 31 32 33 34 34 34 35 36 37 39 40 41 41 40 39 37 36 38 41 43 43 43 43 43 43 44 45 46 46 46 45 46 45 44 42 41 40 40 40 39 37 35 35 36 38 39 40 40 38 39 41 39 34 31 30 32 33 30 28 27 23 17
15 16 16 16 16 17 17 17 18 20 22 23 24 25 25 25 26 27 27 28 28 28 29 30 31 33 33 33 34 37 39 39 38 39 39 39 38 38 38 37 36 38 41 43 43 43 44 44 44 45 46 46 45 44 44 43 43 41 40 39 39 39 39 38 37 37 37 39 40 41 42 41 41 42 39 34 34 33 31 32 32 31 30 27 22
15 15 15 15 16 16 16 17 18 20 21 22 23 24 24 25 26 27 28 28 28 28 29 30 31 32 33 33 33 36 39 39 38 38 38 38 38 37 37 38 37 36 37 40 41 42 43 42 43 44 45 45 45 44 43 43 41 40 39 38 38 39 38 38 39 39 40 42 42 42 42 41 41 41 39 37 37 36 34 33 33 32 30 29 27
14 14 14 14 14 14 15 16 18 19 20 21 22 23 24 26 26 27 28 28 28 28 28 29 30 31 33 34 33 34 36 37 38 38 37 37 37 36 34 36 37 36 35 35 37 40 43 43 43 45 46 46 46 45 45 44 42 39 37 37 38 39 39 38 38 38 39 41 42 40 40 39 36 35 35 36 36 35 36 36 35 33 30 27 25
14 14 14 14 13 13 14 15 17 18 19 20 21 23 24 25 26 27 28 29 30 30 29 28 28 30 33 34 33 32 34 35 36 37 37 36 36 34 33 32 33 35 35 34 34 37 41 42 43 44 46 49 50 49 47 46 43 40 37 37 38 38 38 39 39 38 38 38 38 37 36 35 32 30 31 33 33 32 32 33 33 32 29 24 21
15 14 14 14 13 13 13 15 16 17 18 19 20 22 23 24 26 27 27 28 28 28 28 27 27 29 32 33 32 32 32 33 34 34 36 36 35 34 33 32 31 33 35 35 35 35 38 40 40 41 43 46 49 50 48 46 43 40 37 37 36 36 37 38 38 37 37 35 34 32 29 28 28 27 27 29 31 32 30 28 28 29 27 23 20
16 15 15 15 14 14 14 15 17 17 18 19 20 22 23 24 25 25 25 25 25 25 26 25 26 29 32 32 31 31 30 31 32 33 35 36 36 35 34 33 32 31 32 34 36 36 38 39 40 40 41 43 46 48 47 45 43 40 38 36 35 34 35 36 36 36 35 33 30 28 25 23 24 25 25 27 30 33 32 30 30 31 29 24 20
17 16 17 17 16 16 15 16 17 18 18 19 20 21 22 24 24 24 25 25 26 26 25 23 25 29 31 32 31 31 30 30 32 33 34 37 38 37 35 33 31 29 29 31 33 36 37 39 39 40 41 42 44 46 46 45 43 41 40 38 36 35 35 36 35 34 32 30 28 26 24 22 22 24 25 27 29 32 32 32 32 33 32 27 22
19 19 18 17 17 18 17 17 18 19 20 20 21 22 23 24 24 24 24 24 23 22 22 23 25 28 30 30 30 30 29 29 32 33 35 37 38 37 35 32 30 29 29 29 31 33 35 37 38 40 41 41 43 44 45 45 44 43 42 40 37 36 37 38 37 35 33 31 29 27 25 23 22 23 25 26 28 29 30 29 30 32 32 30 26
20 19 18 17 18 18 18 18 19 19 20 21 22 23 23 23 23 22 22 21 19 19 21 24 26 28 28 27 28 29 29 29 31 34 36 38 38 37 35 34 32 30 30 30 30 31 33 36 37 38 39 40 42 43 43 43 43 43 44 43 41 40 39 38 38 37 36 33 31 29 27 25 24 24 25 27 28 28 28 28 28 28 29 30 31
19 19 19 18 18 18 19 20 20 20 21 21 22 23 23 22 22 21 20 20 19 19 21 24 26 26 26 26 26 28 29 30 32 35 36 37 38 38 37 36 34 32 30 30 31 32 33 36 37 38 39 39 41 43 43 42 42 42 43 43 41 40 40 39 38 37 36 34 32 30 28 27 26 27 28 30 29 28 29 29 27 26 26 27 30
19 19 20 20 19 19 19 20 21 20 20 20 20 21 21 21 22 21 21 20 19 20 21 23 25 24 23 24 26 27 29 30 32 34 36 37 39 39 38 36 34 32 31 31 32 33 34 35 36 36 37 38 39 42 42 42 41 41 41 39 36 36 40 40 39 37 36 35 33 32 31 31 30 30 32 32 31 29 29 28 27 26 27 26 25
20 20 21 21 21 20 20 21 22 21 21 21 20 20 21 21 21 21 21 20 19 19 20 21 23 22 20 21 24 26 27 29 30 33 36 38 38 38 37 35 33 34 34 34 34 33 33 32 33 34 34 34 36 39 41 42 41 39 37 35 33 35 39 39 38 38 37 36 35 34 34 34 34 35 35 34 31 30 29 29 29 28 27 27 24
20 21 22 22 21 20 20 21 22 22 22 21 21 21 21 21 21 22 22 21 19 19 19 20 21 20 18 19 21 24 26 27 29 32 35 37 38 36 36 35 34 34 34 34 34 34 33 33 34 34 33 32 33 36 39 40 39 37 36 34 33 34 37 39 39 38 37 37 37 36 36 37 38 37 37 34 31 31 32 31 31 30 28 28 27
21 23 23 23 22 21 20 21 23 23 23 23 21 20 20 21 21 21 22 21 20 18 18 19 21 19 17 18 20 22 24 25 27 30 34 37 38 37 37 38 37 35 33 32 33 33 34 35 34 34 33 32 31 33 35 37 38 36 35 34 34 35 38 39 39 39 39 38 38 38 38 38 38 36 35 33 32 34 35 34 32 31 30 28 27
23 23 23 22 22 21 20 21 22 23 24 24 23 22 21 20 20 21 21 21 20 19 18 19 20 19 18 18 19 20 22 24 26 28 32 36 38 39 38 37 37 36 33 31 31 32 33 34 34 34 34 34 33 33 33 35 37 35 34 34 35 36 38 40 41 41 40 39 39 39 38 37 35 34 33 34 35 37 37 35 33 32 31 30 28
23 22 22 22 22 21 21 20 21 22 23 24 24 23 23 22 21 21 21 21 20 19 19 19 19 18 17 17 17 18 20 23 24 26 29 33 36 38 37 36 36 36 34 31 30 31 32 32 32 33 33 33 33 33 32 33 34 34 33 34 36 38 39 41 42 41 40 40 38 37 36 36 35 35 36 37 38 37 36 35 35 34 32 31 28
23 23 23 23 22 22 22 21 20 21 22 23 23 23 23 23 23 23 23 23 21 20 19 20 20 21 20 18 17 17 18 21 24 25 28 30 31 33 34 34 34 35 34 31 29 30 29 29 29 30 30 31 31 30 30 32 34 36 36 36 36 38 38 38 39 39 38 37 37 35 35 36 36 36 37 38 37 38 37 36 35 34 33 32 30
23 23 23 23 23 23 22 22 21 21 20 22 23 24 25 25 25 24 25 26 26 24 22 21 23 24 24 23 21 18 18 20 23 24 25 26 28 29 31 32 32 32 31 30 29 29 28 28 29 29 29 30 31 31 32 33 35 36 37 36 36 37 38 39 39 38 37 36 36 35 36 36 36 36 36 37 37 38 38 37 35 34 33 32 32
22 22 22 23 23 23 22 22 22 21 21 20 21 22 24 26 27 27 26 27 28 28 26 25 25 26 27 26 25 24 23 23 25 26 27 28 29 30 30 31 31 29 28 29 30 29 28 28 28 29 30 31 31 32 33 34 34 34 36 37 37 37 38 39 39 38 37 36 36 36 36 37 37 37 37 37 37 38 39 38 37 36 35 34 33
21 21 22 23 24 24 23 22 22 21 21 21 20 19 20 23 27 29 29 27 28 29 30 29 29 29 30 29 27 27 27 26 26 28 30 31 31 31 30 31 31 31 31 31 30 29 28 27 27 28 31 31 32 33 34 34 34 34 34 36 36 36 38 39 39 38 37 37 36 36 38 38 38 39 39 38 38 40 41 39 38 38 37 36 34
22 21 22 23 24 24 24 23 22 21 20 20 20 19 17 17 19 24 28 29 29 30 31 31 31 31 31 30 28 27 27 26 25 27 30 32 33 33 32 32 33 34 35 34 31 28 29 28 27 29 31 32 34 35 36 36 36 36 36 36 36 37 40 41 39 38 38 38 37 37 38 39 39 40 40 39 39 41 42 41 40 39 37 35 34
25 23 23 23 23 24 24 23 22 22 21 20 20 19 18 16 14 15 20 25 28 30 31 32 33 32 30 30 29 27 27 27 26 26 28 31 33 33 32 32 33 36 38 37 32 29 30 30 30 31 33 34 35 36 37 37 38 38 38 38 37 38 39 38 36 36 38 38 38 38 39 40 40 39 39 38 38 40 42 42 42 41 38 36 34
28 26 24 24 24 24 25 25 24 23 22 21 21 20 20 19 16 14 14 16 20 24 28 30 32 32 31 30 30 28 26 26 27 27 27 28 31 33 32 30 32 36 40 39 35 31 31 32 32 33 35 35 35 36 36 37 38 37 37 36 35 35 35 34 34 37 39 39 39 39 39 40 40 39 38 37 37 40 43 44 44 44 43 39 35
27 26 24 24 25 25 25 26 25 24 23 23 23 22 20 19 18 17 16 15 15 18 22 24 27 30 31 31 30 30 29 27 26 27 27 27 29 31 32 30 32 36 39 39 36 33 33 33 33 34 35 35 34 34 33 34 34 35 35 35 34 34 34 35 36 39 40 39 39 38 38 39 39 39 39 37 38 43 46 46 46 47 44 39 35
26 24 24 24 25 25 25 25 25 25 25 24 23 22 21 20 20 19 19 18 18 18 19 20 22 25 29 32 32 32 31 29 27 26 27 28 29 31 32 31 30 32 34 35 34 32 31 32 32 32 33 33 34 34 34 34 35 37 38 38 37 36 36 37 39 39 39 38 38 38 37 39 40 40 39 38 40 45 48 47 46 46 43 39 35
25 24 24 24 25 25 24 25 25 26 25 24 23 22 21 21 21 20 19 19 20 19 18 18 18 20 24 30 33 32 31 30 28 26 25 27 30 34 35 32 30 29 30 31 32 30 28 28 30 31 32 33 35 35 36 38 39 40 40 39 39 39 39 40 39 39 38 38 38 38 39 39 40 41 40 38 38 43 46 44 43 44 42 39 35
26 25 25 25 25 25 25 24 24 24 24 23 23 22 21 21 21 21 20 20 20 19 18 18 18 19 21 24 28 30 29 27 27 27 28 30 33 35 35 33 32 30 29 29 30 31 29 29 31 33 34 35 36 37 37 38 38 38 38 38 38 39 39 38 38 38 38 38 38 38 40 40 39 41 41 38 37 42 44 42 40 41 40 38 36
24 25 25 25 25 25 25 24 22 22 23 23 22 22 21 20 20 20 21 20 19 20 19 18 20 22 21 21 23 27 27 26 27 29 30 32 34 35 35 33 33 32 31 30 30 32 33 34 35 37 38 38 38 38 39 38 38 37 37 37 37 37 38 39 39 39 39 39 39 39 39 40 40 41 42 40 38 41 43 42 41 41 41 41 41
22 23 24 25 25 25 25 24 23 23 23 23 22 21 21 21 21 21 20 20 19 20 20 20 22 24 24 22 23 26 28 28 29 29 29 29 32 34 34 35 35 35 35 35 35 36 38 39 39 39 39 39 39 39 39 39 38 37 37 37 37 38 40 41 41 41 41 41 40 39 39 40 40 40 42 42 41 41 43 43 43 42 42 43 43
21 22 23 24 25 25 24 23 24 24 23 22 21 21 22 23 23 21 20 20 20 20 21 23 25 27 27 25 25 28 28 28 28 29 30 31 32 33 34 35 35 35 35 36 37 38 38 38 38 38 39 39 40 40 39 39 38 38 38 39 39 40 40 40 42 43 43 42 41 40 40 40 41 42 43 43 41 40 40 41 42 42 42 41 40
20 21 21 22 24 24 23 23 24 24 22 22 21 22 23 23 22 21 21 22 22 22 22 23 26 27 28 29 29 30 30 29 27 28 30 32 33 34 36 37 37 37 37 37 37 38 38 38 39 40 41 42 42 41 41 40 40 40 40 40 40 40 40 41 42 43 43 42 42 42 40 40 41 43 43 42 41 40 40 41 41 41 41 40 39
19 20 21 21 22 23 24 24 23 22 22 22 23 23 23 22 21 21 22 22 23 22 22 22 24 25 27 30 32 32 32 31 30 30 30 31 33 34 36 37 38 39 39 39 38 38 38 38 39 40 42 42 42 42 42 42 42 41 40 40 40 41 41 41 41 42 43 43 43 43 41 40 41 42 42 41 42 42 41 40 40 41 41 40 39
17 19 20 20 21 22 23 23 22 21 22 23 23 23 23 22 22 21 21 22 22 22 23 23 22 22 24 27 30 33 34 34 33 33 33 33 34 35 36 37 38 38 39 39 39 38 38 38 38 38 39 40 40 41 41 42 42 42 42 41 41 41 42 43 44 45 46 45 43 41 41 41 41 41 41 42 42 42 41 41 41 41 40 40 39
14 16 18 18 19 20 21 21 22 21 21 21 21 21 22 23 22 22 22 22 22 22 23 23 22 22 23 25 29 32 34 35 35 35 35 35 36 38 38 37 37 38 38 39 39 38 38 38 38 38 38 39 39 40 41 42 42 42 43 43 43 44 45 47 47 47 46 44 42 41 42 42 41 41 42 43 44 43 42 42 43 42 41 40 40
11 14 16 17 18 19 20 20 21 20 20 20 20 20 21 22 22 22 22 22 22 22 22 22 22 22 23 25 28 31 33 33 34 35 35 36 37 38 38 37 37 37 38 39 39 39 40 40 40 39 40 40 40 40 41 42 42 43 43 43 44 45 46 46 45 44 44 45 44 43 43 43 43 43 43 43 43 43 42 42 43 43 42 42 41
6 11 14 16 17 18 19 19 19 19 19 20 19 19 20 21 21 22 23 23 23 23 22 22 23 23 24 25 28 30 31 32 33 34 35 36 37 37 37 37 37 37 38 38 38 39 40 41 42 42 42 42 42 42 43 43 44 44 44 44 44 44 43 43 42 43 44 45 45 44 44 43 43 43 43 42 42 42 41 41 41 42 42 41 40
6 7 10 14 16 17 17 18 18 18 19 19 19 19 20 20 20 21 22 22 23 23 23 23 23 24 24 25 27 29 30 31 32 33 34 35 36 37 37 37 37 38 38 38 38 39 39 41 42 43 43 43 43 43 44 44 45 45 46 46 46 46 45 43 42 43 43 43 43 43 43 43 43 43 43 43 43 42 41 40 40 41 40 39 38
9 8 9 11 13 15 16 17 17 18 18 18 19 19 19 19 20 20 20 21 22 23 23 23 24 24 24 25 26 27 28 30 30 31 32 33 34 36 36 36 37 37 37 38 39 40 40 41 42 43 43 44 44 44 44 45 45 46 47 48 48 49 47 45 43 42 42 42 43 43 43 43 43 43 43 44 43 42 41 40 40 40 39 37 36
11 10 10 10 12 14 16 17 17 18 18 18 18 18 18 19 19 19 20 20 21 21 23 23 24 25 25 25 26 27 28 29 30 30 31 32 33 34 34 35 36 37 37 38 39 39 40 41 42 42 43 43 44 44 44 45 45 46 47 49 49 49 48 47 46 44 42 42 42 43 43 43 43 42 42 43 43 42 41 41 40 39 39 37 37
12 12 12 12 13 14 15 16 17 17 17 18 18 17 17 17 18 19 20 20 20 21 22 23 24 25 26 26 26 27 28 29 30 30 30 31 32 32 33 34 34 35 36 37 38 38 39 40 41 42 43 43 44 44 44 45 46 46 47 48 48 48 48 48 47 45 43 43 43 43 43 44 43 42 41 42 43 42 42 41 40 39 39 38 37
Wind_Direction
227 229 232 232 230 227 225 226 228 227 225 225 228 230 230 227 226 226 225 226 226 225 223 222 219 216 214 212 211 209 208 209 207 206 205 205 204 202 200 198 197 197 196 196 199 200 199 197 199 201 201 199 197 196 195 194 193 191 188 186 188 191 189 176 146 136 170 195 197 195 197 197 197 201 202 200 199 199 199 202 203 202 203 205 209
226 229 230 230 231 231 229 226 225 225 223 222 224 227 230 230 228 226 226 226 226 225 225 223 222 220 217 216 215 213 211 210 209 208 206 206 206 203 200 198 197 196 195 195 196 197 197 196 197 199 199 198 196 195 193 191 190 188 186 189 194 195 193 181 158 143 154 176 187 189 190 195 197 199 203 203 199 198 199 201 201 200 203 208 212
229 227 226 227 229 231 232 230 226 223 222 221 222 224 227 229 230 228 226 227 227 227 226 224 222 221 219 219 218 216 214 212 210 209 207 207 207 204 200 198 198 197 195 195 194 195 196 196 197 197 197 197 196 195 194 191 188 187 188 194 197 194 194 192 178 159 154 164 179 184 184 191 197 197 201 205 203 200 201 202 201 201 203 207 212
236 228 223 223 224 224 226 227 227 226 225 225 226 226 226 226 228 230 230 229 229 229 228 225 223 221 220 219 219 218 217 214 212 210 209 208 207 205 201 198 199 200 198 197 196 196 196 195 196 196 195 195 194 194 192 188 188 190 192 195 198 195 192 195 195 180 164 162 175 185 183 186 194 196 196 200 203 203 204 203 202 203 205 208 210
245 236 228 224 220 219 219 220 221 222 225 228 231 232 231 228 227 230 231 231 231 231 229 227 225 222 221 221 219 218 219 218 215 213 211 209 209 208 204 200 201 202 201 200 198 198 197 196 195 194 193 192 191 191 191 188 190 193 194 194 197 197 192 193 198 194 178 167 168 179 183 183 188 193 194 195 196 198 202 204 203 202 204 208 208
251 243 236 230 224 221 219 217 218 220 221 225 228 230 231 230 229 230 231 232 233 234 232 230 228 226 225 224 221 219 218 217 216 216 214 211 210 209 205 202 203 203 202 201 200 199 199 198 196 194 193 192 190 190 190 191 192 191 191 194 196 194 192 193 193 190 183 173 167 171 180 184 184 186 193 198 195 192 192 196 201 204 206 208 207
247 243 240 237 234 230 226 224 223 223 224 224 226 227 227 227 227 229 231 231 233 235 236 234 233 231 229 227 225 222 218 216 217 217 216 214 212 210 206 202 203 204 203 202 201 200 200 199 197 196 195 194 193 191 190 191 191 191 191 191 192 192 190 189 187 181 175 170 167 170 176 182 184 183 189 197 199 197 194 189 193 201 206 207 207
243 246 248 247 247 245 243 240 237 234 231 229 228 226 226 225 225 227 229 229 231 234 237 238 237 235 233 230 228 225 220 217 216 216 215 214 213 212 208 203 201 202 202 202 201 200 201 200 199 199 198 197 196 195 193 192 190 190 190 189 189 190 188 184 181 177 173 167 167 171 172 176 181 181 183 188 193 199 201 197 195 197 202 204 206
250 255 256 255 256 257 256 254 251 248 242 236 233 230 228 226 225 226 228 230 231 233 235 238 237 236 235 233 230 227 223 220 218 217 216 215 214 213 210 204 201 201 201 202 201 200 200 200 201 201 200 198 199 199 197 196 193 190 188 188 189 189 186 182 178 174 172 167 165 168 169 173 179 179 181 188 192 195 197 199 200 200 201 202 204
254 257 259 261 263 264 263 260 257 253 248 242 238 234 231 228 226 226 228 230 232 232 232 234 234 234 234 233 231 227 225 225 223 222 220 218 215 212 210 207 203 200 200 200 199 199 200 201 202 201 199 197 198 199 198 197 198 196 191 190 192 190 184 180 178 176 174 171 169 170 170 175 183 186 187 191 193 193 193 195 198 198 195 196 203
251 255 259 263 267 268 267 264 258 253 249 244 240 236 232 228 225 225 226 228 230 230 229 230 231 231 231 230 229 228 228 227 224 223 222 219 216 211 207 207 205 201 200 199 198 197 198 200 201 200 198 196 197 198 198 198 199 199 197 198 199 197 191 184 180 178 177 176 177 177 177 179 186 191 191 189 189 194 195 194 193 192 188 187 194
247 253 258 263 266 267 268 265 259 253 248 243 239 235 230 226 224 223 223 224 226 227 227 227 227 228 229 229 227 227 229 228 224 222 219 217 216 213 207 206 207 205 202 200 198 196 195 198 198 197 197 197 196 197 198 199 200 200 201 203 203 204 205 201 195 188 184 182 183 185 186 186 187 190 192 191 191 194 195 194 193 192 191 190 192
244 250 256 261 264 265 265 262 257 251 247 243 238 233 227 224 223 223 223 224 225 224 225 226 225 225 226 227 225 224 225 226 223 222 220 217 216 215 210 206 207 207 205 201 198 195 194 194 193 193 195 195 195 195 195 196 197 199 201 202 202 204 207 209 208 204 198 193 190 192 194 193 191 193 196 196 193 190 190 192 195 195 195 197 200
236 245 254 259 261 261 260 256 251 248 244 239 234 228 224 223 223 224 224 223 221 221 222 222 222 223 224 226 226 223 222 221 220 220 218 216 215 215 213 209 207 207 206 203 200 196 194 193 190 189 190 191 192 193 193 192 193 194 196 198 200 202 203 204 206 205 203 201 199 199 201 200 201 202 201 200 197 194 193 194 196 197 198 200 204
233 245 252 254 255 253 252 248 245 243 239 233 229 225 224 224 224 225 224 222 221 221 220 220 220 221 223 224 224 224 222 219 217 216 215 214 213 212 213 211 208 206 206 205 203 199 195 193 191 188 187 188 190 192 192 191 191 191 193 196 197 199 201 202 203 203 204 206 207 207 206 207 209 209 205 203 203 203 201 199 198 197 195 195 196
233 243 248 250 249 246 244 242 240 238 234 229 226 225 225 225 225 224 223 221 220 219 217 219 222 222 222 222 220 222 223 219 214 213 213 211 208 206 209 211 209 207 206 204 205 203 198 194 192 190 188 187 188 190 191 190 188 187 189 192 194 196 199 202 205 206 208 208 209 212 213 213 213 211 209 207 204 202 199 195 192 190 185 181 185
231 237 241 245 245 243 241 239 236 234 230 226 225 224 225 226 226 224 221 219 219 218 216 219 224 223 221 219 217 217 219 216 212 211 210 207 204 202 205 209 209 208 206 204 203 202 200 197 194 191 191 189 188 188 189 188 186 185 185 187 189 192 196 200 203 206 209 209 210 213 215 214 213 211 210 209 205 202 195 186 185 186 181 176 182
228 231 235 239 241 241 240 237 236 234 230 227 226 226 226 227 227 225 224 222 220 219 219 222 225 223 219 217 215 214 214 211 208 208 206 204 203 200 201 204 206 206 205 203 202 202 200 198 197 194 192 191 189 188 188 187 184 183 184 184 184 188 192 194 196 199 203 205 207 209 209 210 210 207 206 207 207 207 202 193 189 188 184 183 185
227 229 232 234 236 239 239 238 237 235 233 232 232 231 230 229 229 226 223 220 219 221 225 227 226 223 220 217 214 211 211 208 204 203 202 202 202 199 197 199 202 203 203 201 200 201 199 198 198 198 196 194 192 190 189 188 185 185 185 182 182 187 190 190 191 192 194 196 199 201 201 202 203 203 204 206 208 210 210 206 200 193 191 191 186
229 230 232 232 234 238 240 239 239 236 234 235 235 235 232 227 224 221 218 220 225 230 232 228 224 222 220 218 213 210 210 206 201 202 202 201 200 197 195 196 199 200 200 198 197 198 197 196 197 199 199 196 194 192 191 190 188 187 186 185 186 188 187 186 189 191 191 192 193 195 195 195 196 198 200 203 205 207 209 211 210 207 203 199 193
230 228 228 228 230 235 238 238 239 236 233 232 231 229 226 221 219 218 220 224 227 228 226 223 222 222 221 218 214 210 210 206 201 202 204 202 200 197 196 197 198 197 196 196 197 196 195 195 195 197 199 198 196 194 193 193 192 191 190 191 192 190 185 184 187 190 190 190 190 191 192 192 192 195 198 200 200 202 205 209 213 215 215 210 205
225 223 224 224 225 230 234 237 239 237 233 229 226 223 220 220 221 222 221 220 219 218 218 218 220 223 223 220 216 212 211 208 202 203 205 204 200 199 199 199 199 198 195 195 198 198 197 196 194 194 197 197 196 195 194 193 194 194 193 193 193 191 187 185 185 185 186 187 187 187 188 189 190 192 196 197 197 198 203 206 209 213 217 220 220
221 219 219 220 221 224 229 234 236 236 233 229 227 225 222 220 219 218 215 211 209 211 213 214 219 224 223 221 218 214 212 209 205 205 206 204 201 200 199 197 197 199 199 198 199 199 198 196 193 192 194 195 195 194 194 193 194 194 193 193 194 192 188 184 182 182 183 184 185 185 187 190 190 191 194 196 196 197 201 205 207 209 212 216 221
216 215 216 218 219 221 225 230 233 232 230 227 224 222 220 217 214 212 210 205 201 204 207 211 218 224 223 221 219 216 212 210 208 207 207 204 201 198 196 197 198 200 201 202 200 198 195 195 194 192 192 192 194 195 194 193 193 193 193 195 195 192 188 185 182 181 180 181 183 185 188 191 192 193 194 195 194 197 201 204 206 208 210 213 216
211 212 214 215 217 218 221 226 229 228 225 222 220 218 215 212 209 207 206 202 198 198 201 207 216 222 223 222 221 217 214 211 208 207 207 205 202 198 195 197 200 200 201 201 199 196 196 195 195 193 192 191 192 194 194 194 195 195 195 196 195 192 190 187 183 181 181 182 185 188 191 193 194 196 197 196 196 198 200 200 201 205 208 212 214
210 211 212 214 215 216 217 221 225 226 222 219 219 219 217 213 209 205 203 202 201 198 196 202 213 222 224 225 225 220 215 213 210 206 204 203 202 199 196 197 199 200 201 201 198 195 195 195 194 194 194 192 190 191 193 195 197 196 196 196 197 196 193 190 185 184 185 185 187 191 193 192 194 196 197 198 199 199 199 199 200 202 206 209 211
210 209 211 212 212 213 213 216 220 223 221 218 216 218 219 217 214 209 205 203 203 200 195 196 206 219 224 226 226 222 216 213 211 207 203 201 200 199 196 195 196 197 197 198 195 192 191 191 191 193 193 191 190 190 192 194 196 196 196 198 200 200 199 196 193 191 191 190 190 192 193 192 193 195 197 198 199 200 201 202 202 203 204 207 207
211 211 211 211 211 212 212 213 216 219 220 218 215 215 216 216 218 219 216 212 208 203 197 194 200 212 220 221 219 220 220 217 212 209 207 203 200 198 196 195 194 193 192 191 188 187 186 185 187 189 188 185 186 188 190 193 197 198 199 200 202 202 201 199 198 197 196 193 191 191 191 191 192 194 195 197 199 201 202 204 206 205 204 203 203
213 213 212 209 210 211 211 213 214 216 218 220 219 219 219 218 220 223 224 222 218 214 208 201 202 210 218 219 214 212 216 220 218 216 214 210 206 202 200 198 195 192 190 186 181 178 178 179 180 182 182 182 184 188 190 193 197 200 200 200 201 202 200 198 198 197 196 193 191 190 189 190 191 193 194 196 199 201 202 204 205 205 203 203 205
211 213 211 209 209 208 208 211 213 214 217 219 220 222 224 223 224 226 228 228 226 223 221 216 212 213 218 222 221 219 221 225 224 222 220 216 212 208 205 202 197 193 189 184 179 175 176 178 181 182 182 183 187 191 192 192 194 197 200 200 201 201 199 199 200 199 196 194 193 192 191 190 190 192 193 195 197 200 202 204 205 204 202 202 205
209 212 211 210 209 207 206 208 210 212 216 217 217 220 223 226 228 229 230 232 232 231 230 228 224 220 220 222 223 224 226 227 226 222 219 216 212 209 206 203 199 194 189 184 180 178 180 182 185 186 185 186 190 194 195 193 193 196 198 199 201 201 199 200 201 199 195 195 194 194 194 193 192 193 194 196 198 201 202 202 204 204 203 203 205
211 213 212 212 210 207 207 208 209 210 213 215 216 217 218 223 228 230 230 232 235 236 235 233 230 228 225 223 221 220 221 221 221 220 217 213 211 208 205 202 200 197 192 187 185 186 186 186 188 190 190 191 193 196 196 195 195 195 196 197 199 201 202 203 202 198 196 195 195 194 195 195 195 196 197 197 199 200 199 199 201 202 202 204 207
215 216 214 211 209 207 207 207 208 209 210 211 212 214 215 217 222 226 228 230 234 236 236 234 232 230 229 227 225 222 219 217 217 217 215 212 210 206 202 201 201 198 193 190 191 192 191 190 193 195 195 195 196 196 197 197 196 197 197 197 198 201 203 204 201 198 198 199 197 197 199 199 198 197 197 197 198 198 197 200 203 203 202 204 207
219 220 217 212 208 208 208 208 208 209 210 210 211 213 215 216 217 218 220 223 228 234 236 236 234 231 230 229 229 227 223 219 216 214 211 210 209 205 201 199 200 199 197 195 196 195 193 194 197 198 199 199 199 198 198 199 198 198 197 198 199 200 202 203 202 202 202 202 201 201 201 200 197 196 195 196 198 199 200 201 203 203 203 205 206
222 223 221 216 212 211 211 211 211 210 210 211 212 212 214 215 215 215 217 218 223 229 232 234 234 232 230 229 229 228 227 224 219 215 211 208 206 203 199 197 197 197 199 201 201 199 196 196 198 200 201 201 201 201 200 200 199 198 197 197 198 199 201 203 205 206 205 203 202 202 201 200 198 197 196 195 198 200 201 202 203 204 203 204 205
222 222 221 218 216 215 215 214 213 213 213 212 212 212 212 212 213 215 217 220 225 230 231 232 233 232 230 229 228 228 227 225 222 218 213 209 204 199 197 199 199 198 201 205 206 205 203 202 201 202 203 203 204 203 202 201 201 200 200 200 199 199 201 205 207 207 206 205 204 202 201 200 200 199 197 197 201 203 203 202 203 203 203 202 203
221 220 219 219 217 217 218 218 218 217 217 215 213 211 210 211 213 214 216 219 223 229 231 230 227 226 227 226 225 224 224 224 222 220 217 213 207 202 202 204 206 205 206 208 208 208 209 207 206 206 207 207 207 206 205 204 204 203 203 203 202 201 204 207 208 207 206 205 204 203 202 201 201 200 197 198 202 204 203 201 201 202 203 203 203
224 222 221 220 218 217 218 220 220 219 218 218 215 212 210 211 211 213 215 219 222 225 228 227 223 220 221 221 219 218 218 216 215 215 213 210 207 205 207 208 210 211 211 210 208 208 210 210 210 211 211 211 210 209 208 208 208 206 205 204 204 204 205 207 209 208 207 206 205 203 203 202 202 201 199 199 200 201 200 199 200 201 202 202 203
226 226 225 223 220 218 218 218 218 217 216 217 216 213 211 212 211 212 215 218 220 223 224 225 225 225 223 217 210 207 206 206 207 208 208 206 205 206 207 209 210 212 213 211 209 208 209 211 212 212 213 213 213 212 211 210 209 208 206 204 204 204 205 206 208 208 208 207 206 204 203 203 203 202 201 200 200 199 198 199 200 200 200 202 204
228 227 227 224 221 220 219 218 217 217 216 216 215 212 212 214 214 213 213 214 217 221 222 223 228 230 226 217 205 199 199 203 206 208 207 207 208 209 209 209 210 210 210 210 209 209 210 211 212 212 213 213 213 213 213 212 210 209 207 205 204 205 206 207 208 208 208 208 207 205 204 204 203 202 201 202 201 200 200 200 201 201 202 204 205
232 229 227 225 222 221 219 218 219 219 217 217 215 213 215 217 217 216 214 214 216 218 219 222 228 232 230 224 215 207 206 209 210 208 208 210 211 212 213 214 214 213 212 212 211 211 211 212 212 212 213 214 214 214 213 212 211 209 208 207 207 207 208 209 209 210 210 209 208 207 205 204 202 202 202 202 202 202 202 202 202 202 204 205 205
236 231 228 225 222 220 218 220 221 221 219 218 217 217 219 220 219 217 216 217 218 218 218 221 226 228 228 227 222 217 216 218 217 214 213 213 213 214 216 217 217 217 216 215 214 213 213 212 213 213 214 214 214 213 212 212 211 210 210 209 208 209 209 210 211 211 211 210 210 208 207 205 203 204 204 202 200 200 202 202 202 202 203 204 204
240 235 231 227 223 220 221 223 224 221 219 219 219 219 221 221 220 219 220 222 223 221 221 222 223 222 223 224 221 217 217 220 222 221 220 219 218 218 219 220 220 220 220 220 219 217 216 215 215 216 216 216 216 214 213 213 212 211 211 211 211 211 211 212 211 211 211 211 211 210 207 205 204 204 203 201 200 200 201 201 201 201 202 202 202
245 239 236 231 226 224 225 226 224 223 223 222 222 222 222 222 222 221 221 224 225 225 225 227 223 218 216 216 213 211 213 216 219 220 221 221 222 222 223 223 223 223 223 224 223 222 221 220 220 221 221 221 221 219 218 218 216 214 214 213 213 213 213 213 212 212 211 211 210 209 207 206 205 203 202 201 199 199 199 199 200 200 201 200 199
251 244 239 234 229 227 227 226 226 226 226 225 223 223 222 222 222 222 222 224 226 226 228 229 226 219 215 211 208 209 212 215 216 218 219 220 222 224 225 225 224 224 224 225 225 224 223 223 224 224 224 224 224 223 222 222 220 219 218 217 216 216 216 216 216 215 213 211 209 208 206 205 204 203 202 201 200 199 199 199 199 199 198 198 198
263 251 243 238 233 230 229 228 227 226 226 224 224 224 223 223 223 224 224 225 226 226 228 229 226 221 218 214 211 212 215 216 217 219 221 221 223 225 226 226 226 226 226 226 225 224 224 224 225 225 225 225 225 224 224 223 222 222 222 221 221 221 221 220 219 217 215 212 210 208 206 205 204 204 203 202 200 200 200 199 199 199 198 198 199
294 267 253 246 241 238 235 232 228 225 225 225 225 225 225 224 225 225 226 227 227 228 228 229 227 224 221 219 217 217 219 219 220 222 223 224 225 226 227 227 227 227 228 227 227 225 225 225 225 226 226 226 226 225 225 224 224 223 223 223 224 224 225 223 221 219 217 215 212 209 207 206 204 204 204 202 200 199 199 199 199 200 200 200 199
347 304 275 261 252 246 243 240 233 228 226 226 226 228 228 227 226 227 227 228 229 229 230 230 230 228 226 224 222 222 223 223 224 225 226 227 228 228 228 228 228 228 228 228 228 227 226 226 226 226 226 227 226 226 225 225 224 224 224 224 225 225 225 224 222 220 218 216 213 211 209 207 205 204 203 202 200 199 198 198 199 200 200 199 198
358 340 307 282 267 255 250 247 240 234 230 228 227 228 229 228 229 229 228 228 229 230 231 232 232 232 230 229 227 226 226 226 226 227 227 228 229 230 230 229 229 228 228 228 228 228 227 227 227 227 227 227 226 226 226 226 225 225 225 225 226 226 225 224 223 221 218 215 213 211 209 208 207 205 203 202 201 199 198 198 199 199 198 197 196
350 344 327 306 287 273 264 257 250 243 237 233 230 229 229 229 229 230 230 230 231 231 231 233 234 235 234 233 231 229 228 228 228 229 229 230 230 231 231 230 230 229 229 229 229 229 228 228 228 228 228 228 227 227 227 226 226 226 226 226 227 226 225 223 222 221 217 214 212 210 209 208 207 205 204 202 201 199 199 199 198 198 197 196 195
342 339 331 318 304 290 278 269 260 252 244 238 234 232 232 231 231 231 231 232 232 233 233 234 235 236 236 236 235 234 232 231 232 232 232 232 232 232 231 231 230 230 229 229 230 230 229 229 229 228 228 228 228 227 227 227 227 227 228 228 227 226 225 223 222 220 217 215 212 210 209 208 207 205 203 202 200 200 199 199 198 197 197 196 195